When you browse on this site, cookies collect data to enhance your experience and personalize the content and advertising you see.
Visit our Privacy Policy to learn more. By continuing to use the site, you agree to this use of cookies and data.
  • In Romania
  • List of Countries
  • For 7 days
  • Water Temperature
  • Weather Map
  • Weather Widgets
  • user-avatar
    Login

    Hourly Weather Yelsk

    Today, 28 January, Tuesday

    Time Temperature Precipitation Wind Pressure Humidity
    00:00 -2°C° 0 mm 2 mps 744 mmHg 84%
    01:00 -2°C° 0 mm 2 mps 744 mmHg 85%
    02:00 0°C° 0 mm 1 mps 744 mmHg 85%
    03:00 0°C° 0 mm 1 mps 744 mmHg 85%
    04:00 0°C° 0 mm 1 mps 744 mmHg 85%
    05:00 0°C° 0 mm 1 mps 743 mmHg 84%
    06:00 0°C° 0 mm 1 mps 743 mmHg 84%
    07:00 0°C° 0 mm 1 mps 743 mmHg 85%
    08:00 0°C° 0 mm 1 mps 743 mmHg 85%
    09:00 +1°C° 0 mm 1 mps 743 mmHg 80%
    10:00 +1°C° 0 mm 2 mps 743 mmHg 76%
    11:00 +2°C° 0 mm 2 mps 743 mmHg 72%
    12:00 +3°C° 0 mm 2 mps 742 mmHg 71%
    13:00 +3°C° 0 mm 2 mps 742 mmHg 70%
    14:00 +4°C° 0 mm 2 mps 742 mmHg 69%
    15:00 +3°C° 0 mm 2 mps 741 mmHg 74%
    16:00 +2°C° 0 mm 2 mps 741 mmHg 80%
    17:00 -1°C° 0 mm 2 mps 740 mmHg 85%
    18:00 -1°C° 0 mm 2 mps 740 mmHg 87%
    19:00 -1°C° 0 mm 2 mps 740 mmHg 88%
    20:00 -1°C° 0 mm 2 mps 740 mmHg 90%
    21:00 -1°C° 0 mm 2 mps 740 mmHg 90%
    22:00 -1°C° 0 mm 2 mps 739 mmHg 91%
    23:00 -1°C° 0 mm 3 mps 739 mmHg 92%

    Tomorrow, 29 January, Wednesday

    Time Temperature Precipitation Wind Pressure Humidity
    00:00 -1°C° 0 mm 3 mps 738 mmHg 91%
    01:00 -1°C° 0 mm 3 mps 738 mmHg 91%
    02:00 -1°C° 0 mm 3 mps 738 mmHg 91%
    03:00 -1°C° 0 mm 3 mps 737 mmHg 91%
    04:00 -2°C° 0 mm 4 mps 736 mmHg 92%
    05:00 -2°C° 0 mm 4 mps 735 mmHg 93%
    06:00 -1°C° 0 mm 4 mps 735 mmHg 94%
    07:00 0°C° 0 mm 4 mps 734 mmHg 94%
    08:00 +1°C° 0 mm 4 mps 734 mmHg 95%
    09:00 +1°C° 0 mm 4 mps 733 mmHg 94%
    10:00 +1°C° 0 mm 5 mps 733 mmHg 93%
    11:00 +2°C° 0 mm 5 mps 732 mmHg 92%
    12:00 +1°C° 0.8 mm 5 mps 731 mmHg 94%
    13:00 +1°C° 0.8 mm 5 mps 731 mmHg 95%
    14:00 +1°C° 0.8 mm 5 mps 730 mmHg 97%
    15:00 +1°C° 1.1 mm 5 mps 730 mmHg 97%
    16:00 +1°C° 1.1 mm 4 mps 730 mmHg 97%
    17:00 +1°C° 1.1 mm 3 mps 730 mmHg 97%
    18:00 +1°C° 0.6 mm 3 mps 730 mmHg 97%
    19:00 +1°C° 0.6 mm 3 mps 730 mmHg 97%
    20:00 0°C° 0.6 mm 3 mps 730 mmHg 97%
    21:00 -1°C° 0.2 mm 4 mps 730 mmHg 96%
    22:00 -1°C° 0.2 mm 4 mps 730 mmHg 95%
    23:00 -2°C° 0.2 mm 4 mps 730 mmHg 93%

    Day after tomorrow, 30 January, Thursday

    Time Temperature Precipitation Wind Pressure Humidity
    00:00 -2°C° 0 mm 4 mps 730 mmHg 93%
    01:00 -2°C° 0 mm 4 mps 730 mmHg 93%
    02:00 -2°C° 0 mm 4 mps 730 mmHg 93%
    03:00 -1°C° 0.1 mm 3 mps 729 mmHg 94%
    04:00 -1°C° 0.1 mm 3 mps 729 mmHg 95%
    05:00 -1°C° 0.1 mm 2 mps 729 mmHg 96%
    06:00 -1°C° 0.1 mm 2 mps 729 mmHg 97%
    07:00 +1°C° 0.1 mm 2 mps 730 mmHg 97%
    08:00 +1°C° 0.1 mm 2 mps 730 mmHg 97%
    09:00 0°C° 0.2 mm 3 mps 730 mmHg 97%
    10:00 +1°C° 0.2 mm 3 mps 730 mmHg 97%
    11:00 0°C° 0.2 mm 4 mps 730 mmHg 97%
    12:00 0°C° 0.8 mm 5 mps 731 mmHg 97%
    13:00 -1°C° 0.8 mm 6 mps 731 mmHg 96%
    14:00 -1°C° 0.8 mm 6 mps 732 mmHg 96%
    15:00 0°C° 0.9 mm 7 mps 732 mmHg 96%
    16:00 0°C° 0.9 mm 7 mps 733 mmHg 95%
    17:00 0°C° 0.9 mm 7 mps 734 mmHg 95%
    18:00 0°C° 0.4 mm 7 mps 734 mmHg 94%
    19:00 0°C° 0.4 mm 7 mps 735 mmHg 93%
    20:00 -1°C° 0.4 mm 7 mps 736 mmHg 93%
    21:00 -1°C° 0.1 mm 7 mps 737 mmHg 93%
    22:00 -1°C° 0.1 mm 7 mps 737 mmHg 92%
    23:00 -1°C° 0.1 mm 6 mps 737 mmHg 92%

    31 January, Friday

    Time Temperature Precipitation Wind Pressure Humidity
    00:00 -1°C° 0 mm 6 mps 738 mmHg 90%
    01:00 -1°C° 0 mm 6 mps 738 mmHg 88%
    02:00 -1°C° 0 mm 5 mps 739 mmHg 85%
    03:00 -1°C° 0 mm 5 mps 739 mmHg 86%
    04:00 -2°C° 0 mm 5 mps 739 mmHg 87%
    05:00 -2°C° 0 mm 5 mps 739 mmHg 88%
    06:00 -2°C° 0 mm 4 mps 739 mmHg 89%
    07:00 -2°C° 0 mm 4 mps 739 mmHg 90%
    08:00 -1°C° 0 mm 3 mps 739 mmHg 90%
    09:00 -1°C° 0 mm 3 mps 739 mmHg 91%
    10:00 -1°C° 0 mm 3 mps 738 mmHg 92%
    11:00 0°C° 0 mm 3 mps 738 mmHg 93%
    12:00 0°C° 0.1 mm 3 mps 738 mmHg 94%
    13:00 -1°C° 0.1 mm 4 mps 737 mmHg 95%
    14:00 -1°C° 0.1 mm 4 mps 737 mmHg 96%
    15:00 0°C° 0.3 mm 3 mps 737 mmHg 96%
    16:00 -1°C° 0.3 mm 3 mps 736 mmHg 97%
    17:00 -1°C° 0.3 mm 3 mps 736 mmHg 97%
    18:00 0°C° 0.3 mm 3 mps 736 mmHg 97%
    19:00 +1°C° 0.3 mm 2 mps 735 mmHg 97%
    20:00 +1°C° 0.3 mm 2 mps 735 mmHg 97%
    21:00 +2°C° 0.1 mm 1 mps 735 mmHg 98%
    22:00 +2°C° 0.1 mm 1 mps 735 mmHg 98%
    23:00 +1°C° 0.1 mm 0 mps 735 mmHg 98%

    1 February, Saturday

    Time Temperature Precipitation Wind Pressure Humidity
    00:00 +1°C° 0 mm 0 mps 735 mmHg 98%
    01:00 +1°C° 0 mm 0 mps 735 mmHg 98%
    02:00 +1°C° 0 mm 0 mps 736 mmHg 98%
    03:00 +1°C° 0.1 mm 0 mps 736 mmHg 98%
    04:00 +1°C° 0.1 mm 0 mps 736 mmHg 98%
    05:00 +2°C° 0.1 mm 1 mps 737 mmHg 98%
    06:00 +2°C° 0 mm 1 mps 737 mmHg 97%
    07:00 +1°C° 0 mm 2 mps 738 mmHg 96%
    08:00 +2°C° 0 mm 2 mps 738 mmHg 95%
    09:00 +2°C° 0 mm 2 mps 739 mmHg 93%
    10:00 +1°C° 0 mm 3 mps 739 mmHg 90%
    11:00 +1°C° 0 mm 3 mps 739 mmHg 88%
    12:00 +2°C° 0 mm 3 mps 739 mmHg 86%
    13:00 +2°C° 0 mm 3 mps 739 mmHg 84%
    14:00 +3°C° 0 mm 3 mps 739 mmHg 83%
    15:00 +3°C° 0 mm 3 mps 739 mmHg 85%
    16:00 +2°C° 0 mm 3 mps 739 mmHg 87%
    17:00 +3°C° 0 mm 2 mps 739 mmHg 89%
    18:00 +2°C° 0 mm 3 mps 739 mmHg 91%
    19:00 +2°C° 0 mm 3 mps 739 mmHg 92%
    20:00 +2°C° 0 mm 3 mps 739 mmHg 94%
    21:00 +3°C° 0.2 mm 3 mps 739 mmHg 95%
    22:00 +3°C° 0.2 mm 4 mps 738 mmHg 95%
    23:00 +3°C° 0.2 mm 4 mps 738 mmHg 96%

    2 February, Sunday

    Time Temperature Precipitation Wind Pressure Humidity
    00:00 +3°C° 0.2 mm 4 mps 738 mmHg 96%
    01:00 +4°C° 0.2 mm 4 mps 738 mmHg 96%
    02:00 +4°C° 0.2 mm 4 mps 737 mmHg 96%
    03:00 +4°C° 0.1 mm 4 mps 737 mmHg 95%
    04:00 +4°C° 0.1 mm 4 mps 737 mmHg 95%
    05:00 +4°C° 0.1 mm 3 mps 736 mmHg 95%
    06:00 +5°C° 0.2 mm 4 mps 736 mmHg 94%
    07:00 +5°C° 0.2 mm 4 mps 736 mmHg 94%
    08:00 +5°C° 0.2 mm 5 mps 736 mmHg 93%
    09:00 +5°C° 0.1 mm 5 mps 736 mmHg 87%
    10:00 +4°C° 0.1 mm 6 mps 737 mmHg 82%
    11:00 +4°C° 0.1 mm 7 mps 737 mmHg 76%
    12:00 +4°C° 0 mm 7 mps 738 mmHg 73%
    13:00 +4°C° 0 mm 7 mps 738 mmHg 70%
    14:00 +4°C° 0 mm 6 mps 738 mmHg 66%
    15:00 +3°C° 0 mm 5 mps 738 mmHg 70%
    16:00 +2°C° 0 mm 5 mps 739 mmHg 73%
    17:00 +3°C° 0 mm 4 mps 739 mmHg 76%
    18:00 +1°C° 0 mm 4 mps 738 mmHg 78%
    19:00 +2°C° 0 mm 3 mps 738 mmHg 80%
    20:00 +2°C° 0 mm 3 mps 737 mmHg 82%
    21:00 +1°C° 0 mm 4 mps 736 mmHg 82%
    22:00 +1°C° 0 mm 4 mps 735 mmHg 83%
    23:00 +2°C° 0 mm 5 mps 734 mmHg 84%
    Show more